Preview of NWS' New Version of Forecast
This preview is not operational and should not be used for support decisions.

Regional Weather Roundup (RWR)

Issued by National Weather Service (NWS)

                            
000
ASUS43 KTOP 221659
RWRKS 

WEATHER ROUNDUP FOR KANSAS
NATIONAL WEATHER SERVICE GOODLAND KS
1200 PM CDT MON APR 22 2019

NOTE:  "FAIR" INDICATES FEW OR NO CLOUDS BELOW 12,000 FEET WITH NO
SIGNIFICANT WEATHER AND/OR OBSTRUCTIONS TO VISIBILITY.

KSZ001>006-013>018-027>032-041>047-221800-
NORTHWEST KANSAS
  
CITY           SKY/WX    TMP DP  RH WIND       PRES   REMARKS
GOODLAND       CLOUDY    49  35  58 N24G40    30.18R                  
HAYS           CLOUDY    57  45  64 N18       30.11R                  
HILL CITY      CLOUDY    58  44  60 NW14G25   30.13R                  
RUSSELL        CLOUDY    57  46  66 N23G31    30.07R                  
$$

KSZ061>065-074>080-084>089-221800-
SOUTHWEST KANSAS
  
CITY           SKY/WX    TMP DP  RH WIND       PRES   REMARKS
DODGE CITY     MOSUNNY   60  44  55 N20G37    30.10S                  
GARDEN CITY    CLOUDY    55  43  63 N25G32    30.15S                  
GREAT BEND     PTSUNNY   59  50  72 N18G26    30.08R                  
LIBERAL        CLOUDY    59  45  59 N25       30.14R                  
$$

KSZ066>073-081>083-090>101-221800-
SOUTHEAST KANSAS
  
CITY           SKY/WX    TMP DP  RH WIND       PRES   REMARKS
CHANUTE        CLOUDY    72  59  63 S17G24    29.99R                  
COFFEYVILLE    CLOUDY    69  59  70 S16G25    30.00R                  
HUTCHINSON     CLOUDY    61  51  70 N15       30.04R                  
MEDICINE LODGE   N/A     66  53  63 N14G30    30.04R                  
NEWTON         CLOUDY    61  53  75 N16       30.04R                  
PARSONS        CLOUDY    69  59  70 S12G17    30.01R                  
WICHITA INTL   CLOUDY    67  54  63 N15       30.02R                  
WICHITA JABRA  CLOUDY    65  54  67 N14       30.02R                  
WICHITA MCCONL CLOUDY    68  55  64 N13       30.01R                  
WINFIELD       CLOUDY    68  61  78 W7        30.01R                  
$$

KSZ007>012-019>026-033>040-048>060-102>105-221800-
NORTHEAST KANSAS
  
CITY           SKY/WX    TMP DP  RH WIND       PRES   REMARKS
CONCORDIA      CLOUDY    60  49  66 NW17      30.03S                  
EMPORIA        PTSUNNY   70  57  63 W9G20     29.97R                  
LAWRENCE       CLOUDY    73  59  61 W16G24    29.95R                  
MANHATTAN      CLOUDY    63  51  65 NW10G18   30.00R                  
OLATHE IND     CLOUDY    70  58  65 SW17G26   29.97R                  
OLATHE EXE     CLOUDY    70  58  65 SW15G25   29.96R                  
SALINA         CLOUDY    60  51  72 NW18      30.03S                  
TOPEKA BILLARD CLOUDY    71  58  63 W10G20    29.95R                  
TOPEKA FORBES  CLOUDY    70  59  68 W14       29.96R                  
$$